Weather History for Mackay Mo, QU

Change the Weather History Date:

Wednesday, November 6, 2013

  Actual Average Record
Temperature  
Mean Temperature 78 °F -  
Max Temperature 82 °F - - ()
Min Temperature 73 °F - - ()
Cooling Degree Days 12    
Growing Degree Days 28 (Base 50)    
Moisture  
Dew Point 63 °F    
Average Humidity 59    
Maximum Humidity 78    
Minimum Humidity 40    
Precipitation  
Precipitation 0.00 in - - ()
Sea Level Pressure  
Sea Level Pressure 30.05 in    
Wind  
Wind Speed 15 mph ()    
Max Wind Speed 22 mph    
Max Gust Speed -    
Visibility 6.5 miles    
Events      
T = Trace of Precipitation, MM = Missing Value Source: Averaged Metar Reports

Daily Weather History Graph

Daily Weather History Graph

Search for Another Location

Airport:

Trip Planner

Search our weather history database for the weather conditions in past years. The results will help you decide how hot, cold, wet, or windy it might be!

Date:

Astronomy

Nov. 06, 2013 Rise Set
Actual Time 5:17 AM AEST 6:16 PM AEST
Civil Twilight 4:54 AM AEST 6:39 PM AEST
Nautical Twilight 4:26 AM AEST 7:07 PM AEST
Astronomical Twilight 3:58 AM AEST 7:35 PM AEST
Moon 7:28 AM AEST (11/6) 9:02 PM AEST (11/6)
Length of Visible Light 13h 45m
Length of Day
12h 58m
Waxing Crescent, 9% of the Moon is Illuminated
Nov 6
Waxing Crescent
Nov 10
First Quarter
Nov 18
Full
Nov 26
Last Quarter
Dec 3
New

Hourly Weather History & Observations

Time (AEST) Temp. Heat Index Dew Point Humidity Pressure Visibility Wind Dir Wind Speed Gust Speed Precip Events Conditions
12:00 AM 76 °F - 67 °F 68% 30.05 in - East 17.3 mph - -  
12:00 AM 77.0 °F - 68.0 °F 74% 30.04 in 6.2 mi East 18.4 mph - N/A   Overcast
1:00 AM 76 °F - 67 °F 67% 30.03 in - East 17.3 mph - -  
1:00 AM 75.2 °F - 68.0 °F 78% 30.04 in 6.2 mi East 19.6 mph - N/A   Overcast
2:00 AM 75.2 °F - 68.0 °F 78% 30.04 in 6.2 mi East 21.9 mph - N/A   Mostly Cloudy
3:00 AM 75 °F - 65 °F 65% 30.04 in - East 15.0 mph - -   Overcast
3:00 AM 75.2 °F - 68.0 °F 78% 30.04 in 6.2 mi ESE 20.7 mph - N/A   Mostly Cloudy
4:00 AM 75 °F - 64 °F 61% 30.05 in - East 12.7 mph - -  
4:00 AM 75.2 °F - 64.4 °F 69% 30.04 in 6.2 mi ESE 19.6 mph - N/A   Mostly Cloudy
5:00 AM 75.2 °F - 64.4 °F 69% 30.04 in 6.2 mi ESE 19.6 mph - N/A   Scattered Clouds
6:00 AM 75 °F - 63 °F 57% 30.08 in - ESE 12.7 mph - -   Overcast
6:00 AM 75.2 °F - 64.4 °F 69% 30.06 in 6.2 mi East 18.4 mph - N/A   Overcast
7:00 AM 76 °F - 64 °F 58% 30.09 in - East 11.5 mph - -  
7:00 AM 77.0 °F - 64.4 °F 65% 30.09 in 6.2 mi East 17.3 mph - N/A   Overcast
8:00 AM 77.0 °F - 66.2 °F 69% 30.09 in 6.2 mi East 19.6 mph - N/A   Overcast
9:00 AM 78 °F - 61 °F 46% 30.10 in 9 mi ESE 10.4 mph - -   Haze
9:00 AM 78.8 °F - 62.6 °F 57% 30.09 in 6.2 mi East 17.3 mph - N/A   Overcast
10:00 AM 78 °F - 62 °F 48% 30.09 in - ESE 10.4 mph - -  
10:00 AM 82.4 °F 83.4 °F 62.6 °F 51% 30.09 in 6.2 mi ESE 16.1 mph - N/A   Mostly Cloudy
11:00 AM 80.6 °F 81.5 °F 60.8 °F 51% 30.06 in 6.2 mi East 17.3 mph - N/A   Overcast
12:00 PM 78 °F - 59 °F 42% 30.06 in 9 mi ESE 10.4 mph - -   Haze
12:00 PM 80.6 °F 81.8 °F 62.6 °F 54% 30.04 in 6.2 mi East 18.4 mph - N/A   Mostly Cloudy
1:00 PM 80 °F - 60 °F 40% 30.03 in - East 11.5 mph - -  
1:00 PM 80.6 °F 81.5 °F 60.8 °F 51% 30.01 in 6.2 mi East 17.3 mph - N/A   Unknown
2:00 PM 80.6 °F 81.5 °F 60.8 °F 51% 30.01 in 6.2 mi ESE 17.3 mph - N/A   Mostly Cloudy
3:00 PM 76 °F - 59 °F 46% 30.01 in 9 mi East 10.4 mph - -   Haze
3:00 PM 78.8 °F - 59.0 °F 51% 30.01 in 6.2 mi East 17.3 mph - N/A   Overcast
4:00 PM 76 °F - 59 °F 45% 30.01 in - East 10.4 mph - -  
4:00 PM 77.0 °F - 60.8 °F 57% 30.01 in 6.2 mi East 16.1 mph - N/A   Overcast
5:00 PM 77.0 °F - 60.8 °F 57% 30.01 in 6.2 mi ESE 13.8 mph - N/A   Overcast
6:00 PM 75 °F - 60 °F 51% 30.03 in - ESE 9.2 mph - -   Overcast
6:00 PM 75.2 °F - 62.6 °F 65% 30.04 in 6.2 mi ESE 13.8 mph - N/A   Overcast
7:00 PM 74 °F - 58 °F 47% 30.03 in - East 11.5 mph - -  
7:00 PM 73.4 °F - 60.8 °F 65% 30.04 in 6.2 mi ESE 13.8 mph - N/A   Unknown
8:00 PM 73.4 °F - 60.8 °F 65% 30.04 in 6.2 mi East 15.0 mph - N/A   Scattered Clouds
9:00 PM 74 °F - 59 °F 51% 30.04 in - East 10.4 mph - -  
9:00 PM 73.4 °F - 60.8 °F 65% 30.04 in 6.2 mi ESE 13.8 mph - N/A   Scattered Clouds
10:00 PM 74 °F - 61 °F 56% 30.06 in - East 10.4 mph - -  
10:00 PM 73.4 °F - 60.8 °F 65% 30.04 in 6.2 mi East 12.7 mph - N/A   Scattered Clouds
11:00 PM 75.2 °F - 62.6 °F 65% 30.04 in 6.2 mi East 13.8 mph - N/A   Mostly Cloudy